CW2220 Weather Reports


Display with metric or nautical units.
time (UTC)temp
F
wind
direction
speed
MPH
gust
MPH
rain 1hr
in
rain 24hr
in
rain mn
in
humidity
%
barometer
mb
20260506184535 84 87 5.0 10.0 0.00 0.00 0.00 83 1011.2
20260506183036 84 197 5.0 10.0 0.00 0.00 0.00 82 1011.3
20260506181536 84 182 7.0 16.0 0.00 0.00 0.00 83 1011.5
20260506180042 83 190 6.0 14.0 0.00 0.00 0.00 83 1011.7
20260506174536 83 215 6.0 12.0 0.00 0.00 0.00 83 1011.9
20260506173044 83 173 3.0 12.0 0.00 0.00 0.00 85 1012.0
20260506171535 83 173 6.0 12.0 0.00 0.00 0.00 82 1012.0
20260506170034 82 265 6.0 14.0 0.00 0.00 0.00 83 1012.0
20260506164551 82 166 6.0 14.0 0.00 0.00 0.00 84 1012.2
20260506163038 81 183 3.0 11.0 0.00 0.00 0.00 87 1012.2
20260506161535 80 192 4.0 10.0 0.00 0.00 0.00 88 1012.3
20260506160041 80 147 6.0 9.0 0.00 0.00 0.00 88 1012.2
20260506154543 79 215 4.0 12.0 0.00 0.00 0.00 90 1012.0
20260506153032 78 208 4.0 11.0 0.00 0.00 0.00 91 1011.9
20260506151535 78 183 5.0 9.0 0.00 0.00 0.00 91 1011.7
20260506150036 77 217 4.0 15.0 0.00 0.00 0.00 92 1011.9
20260506144534 78 172 8.0 13.0 0.00 0.00 0.00 91 1011.8
20260506143040 78 160 6.0 12.0 0.00 0.00 0.00 91 1011.8
20260506141544 78 175 4.0 11.0 0.00 0.00 0.00 92 1011.6
20260506140035 77 183 5.0 10.0 0.00 0.00 0.00 93 1011.5
20260506134536 77 174 6.0 12.0 0.00 0.00 0.00 94 1011.5
20260506133034 77 190 5.0 11.0 0.00 0.00 0.00 95 1011.5
20260506131536 76 212 5.0 10.0 0.00 0.00 0.00 96 1011.4
20260506130037 76 132 4.0 9.0 0.00 0.00 0.00 96 1011.1
20260506124539 76 185 3.0 8.0 0.00 0.00 0.00 97 1011.0
20260506123041 75 203 3.0 8.0 0.00 0.00 0.00 97 1010.9
20260506121533 75 184 3.0 10.0 0.00 0.00 0.00 97 1010.7
20260506120107 75 173 4.0 11.0 0.00 0.00 0.00 97 1010.6
20260506114535 75 145 3.0 9.0 0.00 0.00 0.00 97 1010.5
20260506113035 74 168 4.0 7.0 0.00 0.00 0.00 97 1010.3
20260506111536 74 207 4.0 9.0 0.00 0.00 0.00 97 1010.1
20260506110034 75 161 3.0 7.0 0.00 0.00 0.00 96 1010.2
20260506104541 75 124 3.0 8.0 0.00 0.00 0.00 96 1010.1
20260506103038 75 201 2.0 7.0 0.00 0.00 0.00 96 1010.3
20260506101535 75 186 2.0 6.0 0.00 0.00 0.00 96 1010.5
20260506100035 75 140 2.0 6.0 0.00 0.00 0.00 95 1010.4
20260506094544 75 194 1.0 4.0 0.00 0.00 0.00 95 1010.6
20260506093046 75 0 0.0 2.0 0.00 0.00 0.00 95 1010.5
20260506091536 75 0 0.0 3.0 0.00 0.00 0.00 95 1010.6
20260506090035 75 0 1.0 4.0 0.00 0.00 0.00 95 1010.4
20260506084535 75 155 0.0 4.0 0.00 0.00 0.00 95 1010.4
20260506083044 75 131 1.0 4.0 0.00 0.00 0.00 95 1010.4
20260506081536 75 189 1.0 6.0 0.00 0.00 0.00 95 1010.4
20260506073035 74 221 2.0 8.0 0.00 0.00 0.00 95 1010.8
20260506071533 74 196 2.0 5.0 0.00 0.00 0.00 94 1010.5
20260506061536 74 149 3.0 7.0 0.00 0.00 0.00 94 1010.7
20260506044540 74 200 5.0 10.0 0.00 0.00 0.00 94 1011.0
20260506043038 74 132 3.0 10.0 0.00 0.00 0.00 94 1010.9
20260506041546 74 184 4.0 12.0 0.00 0.00 0.00 94 1010.9
20260506040041 74 183 5.0 12.0 0.00 0.00 0.00 94 1010.9
20260506034535 74 202 5.0 10.0 0.00 0.00 0.00 94 1010.8
20260506033033 74 178 5.0 12.0 0.00 0.00 0.00 94 1010.8
20260506031551 75 194 4.0 12.0 0.00 0.00 0.00 94 1010.8
20260506030040 75 186 4.0 14.0 0.00 0.00 0.00 94 1010.6
20260506024538 74 194 4.0 7.0 0.00 0.00 0.00 94 1010.4
20260506023037 74 180 4.0 11.0 0.00 0.00 0.00 93 1010.2
20260506021540 75 178 4.0 11.0 0.00 0.00 0.00 92 1010.1
20260506020037 75 184 4.0 9.0 0.00 0.00 0.00 92 1010.0
20260506014536 75 201 3.0 7.0 0.00 0.00 0.00 91 1009.9
20260506013041 75 217 3.0 9.0 0.00 0.00 0.00 90 1009.8
20260506011540 76 192 3.0 10.0 0.00 0.00 0.00 89 1009.4
20260506010034 76 155 2.0 7.0 0.00 0.00 0.00 88 1009.5
20260506004604 77 217 2.0 8.0 0.00 0.00 0.00 87 1009.6
20260506003035 77 157 4.0 10.0 0.00 0.00 0.00 87 1009.3
20260506001536 78 203 5.0 13.0 0.00 0.00 0.00 86 1009.3
20260506000035 78 205 4.0 12.0 0.00 0.00 0.00 85 1009.4
20260505234604 78 138 4.0 14.0 0.00 0.00 0.00 85 1009.4
20260505233035 78 163 8.0 16.0 0.00 0.00 0.00 85 1009.4
20260505231538 78 182 7.0 17.0 0.00 0.00 0.00 85 1009.5
20260505230036 79 183 8.0 18.0 0.00 0.00 0.00 84 1009.6
20260505224535 79 158 4.0 18.0 0.00 0.00 0.00 85 1009.7
20260505223052 79 178 5.0 12.0 0.00 0.00 0.00 85 1009.8
20260505221539 79 158 6.0 17.0 0.00 0.00 0.00 85 1009.9
20260505220034 79 159 7.0 14.0 0.00 0.00 0.00 84 1010.0
20260505214539 80 197 5.0 17.0 0.00 0.00 0.00 83 1010.0
20260505213032 80 107 6.0 15.0 0.00 0.00 0.00 82 1010.1
20260505211538 80 179 8.0 18.0 0.00 0.00 0.00 81 1010.3
20260505210035 80 168 7.0 17.0 0.00 0.00 0.00 80 1010.3
20260505204535 80 194 9.0 19.0 0.00 0.00 0.00 81 1010.2
20260505203036 81 153 8.0 15.0 0.00 0.00 0.00 80 1010.3
20260505201538 82 220 7.0 15.0 0.00 0.00 0.00 79 1010.6
20260505200037 81 238 9.0 19.0 0.00 0.00 0.00 79 1010.6
20260505194537 81 222 9.0 20.0 0.00 0.00 0.00 79 1010.7
20260505193035 81 209 9.0 21.0 0.00 0.00 0.00 79 1010.9
20260505191541 81 272 7.0 19.0 0.00 0.00 0.00 79 1010.9
20260505190046 81 229 6.0 22.0 0.00 0.00 0.00 79 1010.9